Change the Weather History Date:

Thursday, October 4, 2012

  Actual Average Record
Temperature  
Mean Temperature 51 °F -  
Max Temperature 60 °F 56 °F 66 °F (2002)
Min Temperature 42 °F 48 °F 42 °F (1999)
Degree Days  
Heating Degree Days 14    
Growing Degree Days 1 (Base 50)    
Moisture  
Dew Point 44 °F    
Average Humidity 70    
Maximum Humidity 93    
Minimum Humidity 48    
Precipitation  
Precipitation 0.00 in - - ()
Sea Level Pressure  
Sea Level Pressure 29.77 in    
Wind  
Wind Speed 7 mph ()    
Max Wind Speed 12 mph    
Max Gust Speed -    
Visibility 6.2 miles    
Events      
Averages and records for this station are not official NWS values.
T = Trace of Precipitation, MM = Missing Value Source: Averaged Metar Reports

Daily Weather History Graph

Daily Weather History Graph

Search for Another Location

Airport or City:

Trip Planner

Search our weather history database for the weather conditions in past years. The results will help you decide how hot, cold, wet, or windy it might be!

Date:

Astronomy

Oct. 04, 2012 Rise Set
Actual Time 7:15 AM BST 6:38 PM BST
Civil Twilight 6:41 AM BST 7:12 PM BST
Nautical Twilight 6:02 AM BST 7:50 PM BST
Astronomical Twilight 5:22 AM BST 8:30 PM BST
Moon 8:29 PM BST (10/4) 11:52 AM BST (10/4)
Length of Visible Light 12h 30m
Length of Day
11h 23m
Waning Gibbous, 83% of the Moon is Illuminated
Oct 4
Waning Gibbous
Oct 8
Last Quarter
Oct 15
New
Oct 22
First Quarter
Oct 29
Full

Hourly Weather History & Observations

Time (BST) Temp. Windchill Dew Point Humidity Pressure Visibility Wind Dir Wind Speed Gust Speed Precip Events Conditions
6:50 AM 44.6 °F 40.7 °F 41.0 °F 87% 29.68 in - SW 6.9 mph - N/A   Clear
7:20 AM 42.8 °F 39.3 °F 39.2 °F 87% 29.68 in - SW 5.8 mph - N/A   Clear
7:50 AM 44.6 °F 42.2 °F 42.8 °F 93% 29.71 in 6.2 mi SSW 4.6 mph - N/A   Partly Cloudy
8:20 AM 48.2 °F - 42.8 °F 82% 29.71 in 6.2 mi SSW 6.9 mph - N/A   Partly Cloudy
8:50 AM 50.0 °F - 44.6 °F 82% 29.74 in 6.2 mi SW 6.9 mph - N/A   Partly Cloudy
9:20 AM 50.0 °F - 44.6 °F 82% 29.74 in 6.2 mi SW 6.9 mph - N/A   Partly Cloudy
9:50 AM 51.8 °F - 44.6 °F 76% 29.74 in 6.2 mi SW 6.9 mph - N/A   Partly Cloudy
10:20 AM 53.6 °F - 46.4 °F 77% 29.74 in 6.2 mi SW 6.9 mph - N/A   Partly Cloudy
10:50 AM 55.4 °F - 44.6 °F 67% 29.77 in 6.2 mi SW 8.1 mph - N/A   Partly Cloudy
11:20 AM 55.4 °F - 46.4 °F 72% 29.77 in 6.2 mi SW 9.2 mph - N/A   Partly Cloudy
11:50 AM 55.4 °F - 46.4 °F 72% 29.80 in 6.2 mi SW 8.1 mph - N/A   Scattered Clouds
12:20 PM 57.2 °F - 46.4 °F 67% 29.80 in 6.2 mi WSW 8.1 mph - N/A   Scattered Clouds
12:50 PM 59.0 °F - 44.6 °F 59% 29.80 in 6.2 mi WSW 8.1 mph - N/A   Scattered Clouds
1:20 PM 60.8 °F - 44.6 °F 55% 29.80 in 6.2 mi WSW 9.2 mph - N/A   Scattered Clouds
1:50 PM 59.0 °F - 42.8 °F 55% 29.80 in 6.2 mi SW 9.2 mph - N/A   Scattered Clouds
2:20 PM 60.8 °F - 42.8 °F 52% 29.80 in 6.2 mi WSW 8.1 mph - N/A   Partly Cloudy
2:50 PM 60.8 °F - 41.0 °F 48% 29.80 in 6.2 mi WSW 10.4 mph - N/A   Partly Cloudy
3:20 PM 59.0 °F - 42.8 °F 55% 29.80 in 6.2 mi WSW 9.2 mph - N/A   Partly Cloudy
3:50 PM 59.0 °F - 46.4 °F 63% 29.80 in 6.2 mi SW 11.5 mph - N/A   Partly Cloudy
4:20 PM 57.2 °F - 46.4 °F 67% 29.77 in 6.2 mi SSW 10.4 mph - N/A   Partly Cloudy
4:50 PM 57.2 °F - 46.4 °F 67% 29.77 in 6.2 mi SSW 9.2 mph - N/A   Partly Cloudy
5:20 PM 55.4 °F - 44.6 °F 67% 29.80 in 6.2 mi SSW 10.4 mph - N/A   Partly Cloudy
5:50 PM 55.4 °F - 44.6 °F 67% 29.80 in 6.2 mi SSW 9.2 mph - N/A   Partly Cloudy
6:20 PM 55.4 °F - 46.4 °F 72% 29.77 in 6.2 mi SSW 8.1 mph - N/A   Partly Cloudy
6:50 PM 55.4 °F - 46.4 °F 72% 29.77 in 6.2 mi South 6.9 mph - N/A   Partly Cloudy